[[{"header":{"parameterUnit":"m.s-1","parameterCategory":1,"la1":30.2991,"la2":30.254,"lo1":-89.0895,"lo2":-89.0444,"dy":0.0017,"dx":0.0017,"nx":28,"ny":28,"refTime":"2023-10-19T03:00:00:Z","depth":0,"parameterNumber":2,"parameterNumberName":"U-component_of_WINDS"},"data":[0,0,0,0,0,0,0,0,0,0,0,0,0,0,0,0,0,0,0,0,0,0,0,0,0,0,0,0,0,0,0,0,0,0,0,0,0,0,0,0,0,0,0,0,0,0,0,0,0,0,0,0,0,0,0,0,0,0,3.1108,3.111,0,3.1242,3.1244,3.1245,3.1233,3.1231,3.1229,3.1227,3.1363,3.1368,3.1374,0,0,0,0,0,0,0,0,0,0,0,0,0,3.0841,3.0846,3.1108,3.111,3.1111,3.1242,3.1244,3.1245,3.1233,3.1231,3.1228,3.1226,3.1361,3.1368,3.1374,0,0,0,0,0,0,0,0,0,0,0,0,0,3.0964,3.0847,3.1108,3.1121,3.1123,3.1241,3.1244,3.1246,3.1234,3.1231,3.1227,3.1225,3.1359,3.1367,3.1375,3.1488,0,0,3.1401,3.1404,0,0,0,0,0,0,0,0,3.0957,3.0974,3.1117,3.112,3.1123,3.1218,3.1199,3.1327,3.1234,3.1192,3.1227,3.1223,3.1317,3.1329,3.136,3.1495,3.1501,3.1401,3.1406,3.141,3.1412,0,0,0,0,0,0,0,3.0948,3.0968,3.1161,3.1119,3.1123,3.112,3.1134,3.1223,3.127,3.1195,3.1195,3.1211,3.1318,3.1352,3.1364,3.1503,3.1401,3.1409,3.1414,3.1417,3.1736,3.1739,0,0,0,0,0,0,3.0937,3.0961,3.1157,3.1165,3.1031,3.1127,3.1143,3.119,3.1269,3.1278,3.1213,3.121,3.134,3.1354,3.1368,3.1505,3.141,3.1418,3.1423,3.1732,3.1736,3.174,0,0,0,0,0,0,3.0931,3.0954,3.1151,3.1063,3.1088,3.1135,3.1188,3.1195,3.1229,3.1283,3.1291,3.124,3.1338,3.1357,3.1459,3.151,3.1421,3.1429,3.1728,3.1734,3.1738,3.178,0,0,0,0,0,0,3.0923,3.0952,3.0996,3.1064,3.1092,3.124,3.1192,3.1199,3.1244,3.124,3.131,3.1318,3.1337,3.1446,3.1467,3.152,3.1436,3.1724,3.1731,3.1737,3.1774,3.1786,3.1796,0,0,0,0,0,3.0914,3.1002,3.0998,3.1022,3.1148,3.1243,3.1259,3.1279,3.1248,3.1292,3.1326,3.1316,3.1501,3.1457,3.148,3.1536,3.1721,3.1729,3.1736,3.1769,3.1784,3.1796,0,0,0,0,0,0,3.0939,3.1012,3.1008,3.1121,3.1176,3.124,3.1296,3.1293,3.1358,3.1352,3.1373,3.1389,3.1492,3.1524,3.1473,3.1649,3.1607,3.1619,3.1624,3.1638,3.1649,3.1638,3.1442,0,0,0,0,0,3.0958,3.1029,3.1088,3.1182,3.121,3.1249,3.1291,3.1301,3.1359,3.1382,3.1424,3.1479,3.155,3.1596,3.1664,3.1779,3.1794,3.1829,3.184,3.1849,3.1859,3.1922,3.1938,3.1766,3.1766,3.1766,0,0,3.0997,3.1046,3.1089,3.1189,3.1232,3.1305,3.1268,3.1347,3.1401,3.1394,3.1492,3.1525,3.1589,3.1698,3.1748,3.1728,3.191,3.1859,3.1865,3.1871,3.1932,3.1948,3.1962,3.1771,3.177,3.1769,0,0,3.1106,3.115,3.1233,3.1277,3.1344,3.1369,3.1389,3.1455,3.1476,3.1576,3.1571,3.1636,3.1757,3.1803,3.1842,3.1968,3.1961,3.1989,3.2046,3.2107,3.212,3.2132,3.2176,3.2191,3.2,3.2,3.2,0,3.1146,3.1255,3.1276,3.1355,3.1398,3.1396,3.1479,3.1522,3.1607,3.1637,3.1614,3.1766,3.1809,3.1928,3.1959,3.1991,3.2014,3.1981,3.2117,3.2129,3.214,3.2182,3.2199,3.2003,3.2003,3.2002,3.2002,0,3.1301,3.1377,3.1436,3.1518,3.1569,3.165,3.1682,3.1731,3.1737,3.1765,3.1866,3.1917,3.1995,3.2024,3.2032,3.2145,3.213,3.2112,3.2069,3.2159,3.2199,3.2216,3.2007,3.2006,3.2005,3.2005,0,0,3.1428,3.1521,3.1542,3.1579,3.1653,3.1712,3.1793,3.1869,3.191,3.197,3.2037,3.214,3.2124,3.2168,3.218,3.2234,3.2329,3.2209,3.221,3.2228,3.2455,3.2468,3.2486,3.2325,3.2328,3.2331,3.245,0,3.1542,3.1686,3.1706,3.1833,3.1902,3.1901,3.1972,3.2024,3.2052,3.2116,3.2147,3.2219,3.2192,3.2219,3.2272,3.2306,3.2375,3.2298,3.2387,3.239,3.237,3.2507,3.252,3.263,3.2465,3.2468,3.247,0,3.1695,3.1758,3.1892,3.1955,3.1986,3.2048,3.212,3.2181,3.224,3.2257,3.2307,3.2312,3.2396,3.2351,3.2465,3.2413,3.2451,3.2473,3.2478,3.2486,3.2434,3.2517,3.2665,3.2681,3.2495,3.2493,3.2491,0,3.1772,3.1891,3.1986,3.2018,3.2095,3.2139,3.2174,3.223,3.2275,3.2338,3.2367,3.2438,3.2477,3.2532,3.2557,3.2522,3.267,3.2627,3.2685,3.2685,3.2715,3.2712,3.287,3.2742,3.2742,3.2742,3.2741,0,3.1897,3.1978,3.2022,3.208,3.2171,3.2194,3.2283,3.2316,3.2366,3.243,3.2435,3.2495,3.2524,3.2589,3.2609,3.27,3.2718,3.2733,3.2737,3.2732,3.273,3.2756,3.2748,3.2746,3.2745,3.2744,3.2743,0,3.1998,3.2031,3.2134,3.2199,3.2217,3.2281,3.2336,3.2392,3.242,3.2501,3.2522,3.2565,3.2642,3.2672,3.2766,3.2779,3.2884,3.2882,3.2863,3.2864,3.292,3.2913,3.3098,3.3123,3.298,3.2982,3.2983,0,3.2075,3.2137,3.2209,3.2252,3.2288,3.2358,3.2403,3.2429,3.2476,3.2549,3.2596,3.2673,3.2735,3.2856,3.2896,3.2967,3.2967,3.3027,3.2978,3.297,3.2966,3.2962,3.2967,3.3035,3.3037,3.3038,3.3039,0,3.2207,3.222,3.2286,3.2358,3.2412,3.2469,3.2525,3.2561,3.2595,3.2648,3.2726,3.2774,3.2869,3.2945,3.3018,3.3053,3.3052,3.3055,3.3071,3.3066,3.3051,3.3059,3.2886,3.305,3.3049,3.3048,3.3047,3.3047,3.2298,3.2353,3.2411,3.2484,3.2529,3.2582,3.2637,3.2673,3.2738,3.2818,3.2829,3.2912,3.297,3.3069,3.3107,3.3172,3.3157,3.3182,3.3188,3.3193,3.3196,3.3043,3.3186,3.3186,3.3186,3.3185,3.3185,0,3.2429,3.2467,3.2534,3.2612,3.2669,3.2664,3.2726,3.2774,3.2847,3.2901,3.2963,3.3052,3.3125,3.3171,3.3245,3.3288,3.3289,3.3306,3.3303,3.331,3.3206,3.3184,3.3304,3.3304,3.3304,3.3304,3.3304,3.3304,3.2503,3.2596,3.2616,3.2731,3.2768,3.285,3.2886,3.2934,3.2977,3.3077,3.3138,3.3168,3.3219,3.3296,3.3363,3.3374,3.34,3.3419,3.3429,3.333,3.3318,3.3306,3.3285,3.3424,3.3425,3.3527,3.3528,3.3529]},{"header":{"parameterUnit":"m.s-1","parameterCategory":1,"la1":30.2991,"la2":30.254,"lo1":-89.0895,"lo2":-89.0444,"dy":0.0017,"dx":0.0017,"nx":28,"ny":28,"refTime":"2023-10-19T03:00:00:Z","depth":0,"parameterNumber":3,"parameterNumberName":"V-component_of_WINDS"},"data":[0,0,0,0,0,0,0,0,0,0,0,0,0,0,0,0,0,0,0,0,0,0,0,0,0,0,0,0,0,0,0,0,0,0,0,0,0,0,0,0,0,0,0,0,0,0,0,0,0,0,0,0,0,0,0,0,0,0,3.5933,3.5935,0,3.6116,3.6118,3.612,3.6138,3.6136,3.6134,3.6132,3.6312,3.6319,3.6325,0,0,0,0,0,0,0,0,0,0,0,0,0,3.5593,3.5599,3.5933,3.5935,3.5937,3.6115,3.6118,3.612,3.6138,3.6136,3.6133,3.6131,3.631,3.6318,3.6326,0,0,0,0,0,0,0,0,0,0,0,0,0,3.5754,3.5601,3.5932,3.5968,3.5973,3.6115,3.6118,3.6121,3.6138,3.6136,3.6133,3.613,3.6308,3.6317,3.6327,3.6444,0,0,3.6357,3.6361,0,0,0,0,0,0,0,0,3.5745,3.5767,3.596,3.5966,3.5971,3.6101,3.6064,3.6229,3.6139,3.6075,3.6132,3.6129,3.6244,3.6259,3.6299,3.6453,3.646,3.6358,3.6364,3.6368,3.6371,0,0,0,0,0,0,0,3.5734,3.5759,3.6005,3.5963,3.597,3.5972,3.5992,3.6095,3.6173,3.6081,3.6082,3.6104,3.6246,3.6289,3.6303,3.6463,3.6358,3.6366,3.6372,3.6376,3.6721,3.6725,0,0,0,0,0,0,3.5717,3.575,3.5999,3.601,3.5849,3.5981,3.6003,3.6062,3.6172,3.6186,3.6106,3.6104,3.6274,3.6292,3.631,3.6455,3.6368,3.6377,3.6383,3.6718,3.6722,3.6726,0,0,0,0,0,0,3.571,3.5739,3.5992,3.5881,3.5913,3.599,3.6056,3.6067,3.6111,3.6192,3.6205,3.6137,3.6273,3.6296,3.6411,3.6461,3.6382,3.6391,3.6714,3.6719,3.6724,3.6745,0,0,0,0,0,0,3.57,3.5737,3.5783,3.5882,3.5919,3.6092,3.6059,3.6073,3.6128,3.6127,3.6223,3.6237,3.6272,3.6396,3.6421,3.6473,3.6398,3.671,3.6717,3.6722,3.674,3.675,3.6759,0,0,0,0,0,3.5688,3.5781,3.5786,3.5816,3.598,3.6095,3.6116,3.6157,3.6132,3.6179,3.6231,3.6234,3.6452,3.6408,3.6436,3.6492,3.6707,3.6715,3.6722,3.6736,3.6748,3.6759,0,0,0,0,0,0,3.5684,3.5794,3.5801,3.5929,3.6003,3.6098,3.6158,3.6168,3.6249,3.6245,3.629,3.6311,3.6425,3.6469,3.6419,3.6611,3.6577,3.659,3.6578,3.659,3.6599,3.6586,3.6406,0,0,0,0,0,3.5698,3.5785,3.5876,3.5979,3.6016,3.6081,3.6133,3.6158,3.6235,3.6266,3.6326,3.64,3.6485,3.654,3.6622,3.6747,3.6767,3.6799,3.6808,3.6815,3.6826,3.6895,3.691,3.675,3.675,3.675,0,0,3.5728,3.5799,3.5851,3.598,3.6041,3.6128,3.6107,3.62,3.6264,3.6279,3.6393,3.6439,3.6524,3.6644,3.67,3.6685,3.6875,3.6824,3.6829,3.6837,3.6904,3.6919,3.6933,3.6755,3.6754,3.6753,0,0,3.5827,3.589,3.5984,3.6045,3.6137,3.618,3.6202,3.6296,3.6329,3.6443,3.6457,3.6532,3.6678,3.6738,3.6787,3.6909,3.6915,3.6935,3.6983,3.7049,3.7062,3.7073,3.7117,3.7132,3.6945,3.6945,3.6945,0,3.5852,3.5986,3.603,3.6124,3.618,3.62,3.6294,3.635,3.6464,3.6501,3.6483,3.6667,3.6725,3.686,3.689,3.6929,3.6955,3.6924,3.7057,3.7069,3.708,3.7122,3.7139,3.6947,3.6947,3.6947,3.6947,0,3.6013,3.6105,3.6169,3.6281,3.6345,3.6438,3.6494,3.6552,3.6572,3.6615,3.6731,3.6802,3.69,3.6933,3.6952,3.7071,3.7059,3.7048,3.7015,3.7097,3.7137,3.7154,3.695,3.6949,3.6949,3.6948,0,0,3.6115,3.6251,3.6273,3.6325,3.6428,3.6499,3.6592,3.669,3.6739,3.6816,3.6895,3.7018,3.701,3.7066,3.7091,3.715,3.7242,3.7132,3.7135,3.7151,3.7377,3.7385,3.7403,3.7246,3.7249,3.7252,3.737,0,3.6226,3.6396,3.6438,3.6582,3.6668,3.6688,3.6769,3.684,3.6883,3.696,3.7006,3.7093,3.7075,3.7109,3.7168,3.7218,3.7288,3.721,3.7318,3.7322,3.7298,3.7424,3.7433,3.7541,3.7386,3.7389,3.7391,0,3.6379,3.6463,3.6616,3.6709,3.6746,3.6819,3.6912,3.6986,3.7066,3.7093,3.7156,3.7176,3.7272,3.7233,3.7365,3.7311,3.7357,3.7389,3.7394,3.7406,3.7362,3.744,3.7577,3.7593,3.7416,3.7414,3.7412,0,3.6439,3.6589,3.6701,3.6744,3.6854,3.6905,3.6953,3.7031,3.7087,3.7167,3.7204,3.7293,3.7342,3.7409,3.7452,3.742,3.7581,3.7546,3.7605,3.7604,3.7639,3.7636,3.7785,3.7667,3.7667,3.7667,3.7666,0,3.656,3.6653,3.673,3.6798,3.6902,3.6949,3.705,3.7098,3.7167,3.7244,3.7265,3.7336,3.7388,3.7466,3.7499,3.7604,3.7625,3.7649,3.7657,3.7648,3.7645,3.7679,3.7673,3.7671,3.767,3.7669,3.7669,0,3.6645,3.67,3.6823,3.6918,3.6944,3.7017,3.7097,3.7164,3.7207,3.7304,3.7329,3.7397,3.7489,3.7539,3.7654,3.7676,3.7794,3.7797,3.7767,3.7771,3.7828,3.7822,3.8005,3.8031,3.7895,3.7896,3.7897,0,3.6718,3.6791,3.6895,3.6949,3.6999,3.7085,3.7143,3.7191,3.725,3.7347,3.7401,3.7496,3.7574,3.772,3.7778,3.7866,3.7872,3.793,3.7885,3.7874,3.7874,3.7869,3.7877,3.7938,3.7939,3.794,3.7941,0,3.6843,3.6867,3.6952,3.7046,3.7115,3.719,3.7265,3.7307,3.7367,3.7432,3.7528,3.7589,3.7708,3.7801,3.7894,3.794,3.7951,3.7955,3.7973,3.7965,3.7945,3.7957,3.779,3.795,3.795,3.7949,3.7948,3.7948,3.6926,3.6991,3.7075,3.7168,3.7229,3.7299,3.7366,3.7419,3.7501,3.7603,3.7625,3.7727,3.7804,3.7931,3.798,3.8059,3.8047,3.8074,3.808,3.8087,3.8089,3.7932,3.8075,3.8075,3.8075,3.8075,3.8075,0,3.7052,3.7107,3.7192,3.7297,3.737,3.7376,3.7458,3.7518,3.7609,3.7681,3.7758,3.7869,3.7959,3.8024,3.8116,3.8166,3.8173,3.8189,3.8186,3.8197,3.8094,3.807,3.8182,3.8182,3.8182,3.8182,3.8182,3.8182,3.7127,3.7238,3.7272,3.7414,3.7468,3.757,3.7616,3.768,3.7738,3.7862,3.7938,3.7981,3.805,3.8147,3.823,3.8246,3.8279,3.8295,3.8312,3.8215,3.8204,3.8193,3.817,3.8301,3.8301,3.8407,3.8408,3.8409]}]]